Location: Beddau
(51.5575°N, 3.3561°W)
Time: 11:15:45
(UTC+00:00)

Cosmos 2360 Rocket - Pass Details

Date: 03 March 2021
Orbit: 832 x 846 km, 71.0° (Epoch: 13 April)

Event Time Altitude Azimuth Distance (km) Brightness Sun altitude
Rises 20:20:58 0° 222° (SW) 3,382 5.6 -22.8°
Reaches altitude 10° 20:23:27 10° 226° (SW) 2,453 4.9 -23.2°
Maximum altitude 20:29:00 59° 305° (NW) 974 2.7 -24.0°
Drops below altitude 10° 20:34:37 10° 26° (NNE) 2,476 4.6 -24.8°
Sets 20:37:08 0° 30° (NNE) 3,417 5.3 -25.1°
